Wind_Speed
10 5 4 8 11 13 11 10 6 1 5 8 6 5 6 5 4 4 4 5 6 5 5 9 10 15 18 12 12 20 18 18 26 28 28 29 30 30 29 30 29 31 32 29 28 31 31 30 30 30 31 30 31 31 32 32 32 32 31 33 34 34 34 33 33 33 33 33 33 33 33 33 32 29 29 30 30 28 27 25 24 24 23 23 22 21
8 5 8 11 9 9 10 8 4 1 5 8 7 6 6 6 5 5 4 3 4 4 4 7 8 12 17 14 14 15 9 16 27 25 25 28 29 32 33 34 33 30 30 29 30 31 30 30 30 31 32 32 32 32 33 34 34 34 33 34 35 34 35 36 36 35 35 35 35 35 35 34 33 32 32 32 32 30 29 28 27 26 25 24 24 23
4 7 12 9 6 6 6 7 5 2 4 6 5 5 6 4 1 4 4 2 3 4 4 6 6 10 14 14 13 13 13 23 30 25 26 28 28 33 35 36 36 34 34 34 34 33 32 31 30 32 33 33 33 32 33 34 35 36 36 36 36 36 36 36 37 37 37 36 35 34 34 34 35 35 35 34 33 32 32 31 30 29 28 26 25 24
4 7 11 8 8 8 5 5 6 2 2 4 4 5 4 3 3 3 4 2 3 3 2 3 5 7 10 11 11 16 22 28 33 30 31 32 31 36 38 37 36 37 39 40 40 39 37 35 34 34 34 33 34 34 34 34 35 37 38 38 37 37 37 37 37 38 37 36 35 34 34 33 34 35 35 36 36 36 36 35 34 33 31 29 27 26
8 4 9 12 8 8 6 6 8 5 4 4 5 6 4 4 7 5 2 1 1 1 1 1 6 6 7 11 12 13 15 21 28 27 28 34 37 38 38 39 40 40 41 42 42 42 41 40 38 37 36 34 35 36 36 35 35 37 38 38 39 38 38 37 38 38 37 38 38 37 36 35 36 36 38 39 40 39 39 38 37 36 34 32 30 29
13 7 10 12 7 8 8 7 9 8 5 5 6 8 7 6 7 5 3 2 2 3 2 2 4 6 5 9 11 9 5 10 17 16 22 34 36 35 37 41 44 43 44 44 43 43 42 42 41 39 39 38 38 38 36 35 34 36 37 38 39 39 40 39 38 38 38 39 40 40 40 40 39 40 41 42 42 41 40 39 39 38 36 34 33 32
8 9 8 7 8 10 10 8 8 9 6 6 6 8 7 7 7 5 5 3 1 4 3 2 4 6 5 5 8 7 5 9 11 9 20 32 31 31 36 41 43 44 45 46 45 44 44 43 43 42 41 41 41 40 37 35 35 35 37 37 38 39 40 40 39 39 39 40 41 42 42 42 42 42 42 41 40 40 39 39 39 39 38 37 36 35
7 13 9 8 10 9 9 9 11 12 8 6 6 10 9 8 7 5 5 4 3 2 2 1 3 5 7 6 6 8 8 10 12 11 17 26 29 32 36 39 40 41 41 41 43 44 45 45 46 46 45 43 42 40 38 39 38 37 36 37 37 38 39 40 41 40 40 40 41 42 42 43 43 43 42 40 39 38 38 39 40 40 40 39 38 37
9 14 13 13 13 8 11 14 11 13 9 6 6 10 9 5 4 4 4 4 1 2 3 2 2 3 8 6 4 6 9 11 14 16 16 21 30 34 36 38 37 35 35 36 38 39 40 41 42 44 44 44 43 41 39 40 41 39 37 37 38 39 40 40 41 41 41 41 41 41 42 43 43 43 42 41 40 39 39 39 39 40 41 41 41 40
6 17 20 15 10 9 14 12 10 13 9 5 6 6 5 5 5 3 3 3 2 1 7 6 5 4 8 5 4 3 6 9 11 12 14 22 32 36 37 39 38 36 36 37 38 37 37 36 35 35 36 39 40 40 40 40 40 41 40 40 40 40 40 40 41 42 42 42 41 41 42 42 42 42 42 41 41 41 40 40 40 40 40 41 42 42
1 12 17 12 12 12 9 6 8 11 5 3 5 5 5 4 4 3 2 3 2 4 10 10 10 7 7 4 6 5 5 8 9 9 13 21 28 33 36 39 38 37 36 35 34 33 34 34 33 32 33 34 34 36 38 39 40 42 42 43 43 41 41 41 42 42 42 42 42 42 41 42 41 41 41 42 42 42 41 40 40 39 39 40 40 41
2 6 8 10 16 12 7 5 5 5 4 2 1 4 4 1 1 2 1 1 3 6 9 11 12 10 9 5 4 6 6 7 9 10 12 15 21 30 34 35 34 33 30 27 25 24 26 28 30 31 32 33 34 35 37 38 40 42 43 45 44 43 42 42 42 43 43 43 43 42 42 41 41 41 42 42 42 41 41 40 39 39 38 38 38 40
4 5 5 6 12 13 8 4 1 3 6 2 1 4 5 3 1 2 3 2 5 7 5 4 9 9 12 9 5 7 7 8 11 15 17 17 22 28 28 27 25 22 22 21 20 21 21 21 23 25 27 28 31 33 34 35 38 41 43 45 45 44 43 42 43 42 43 44 43 43 42 41 41 42 43 43 42 41 41 40 39 38 37 37 37 38
4 5 6 4 6 14 13 7 4 4 9 9 6 8 8 4 4 5 5 2 6 8 3 2 5 5 9 8 8 11 13 16 19 23 26 24 25 30 30 29 29 29 30 27 23 22 20 17 17 19 21 24 27 29 31 33 35 38 41 44 45 43 42 43 43 42 43 43 42 43 43 42 43 44 44 43 42 42 42 41 39 38 37 36 36 35
9 8 9 10 8 15 16 14 15 10 10 13 9 7 7 5 5 6 5 6 7 6 2 2 4 4 5 4 5 10 15 20 22 25 28 28 30 32 31 32 35 38 38 34 31 27 21 16 14 15 17 19 22 25 28 31 33 37 40 42 43 42 41 42 42 42 42 41 41 42 43 43 43 44 44 43 42 42 42 41 40 38 37 36 34 34
11 7 8 15 13 17 18 16 12 7 4 7 5 5 8 5 5 2 2 5 4 3 3 3 4 4 5 7 7 8 13 17 20 25 26 29 31 29 29 32 33 33 32 32 33 31 25 19 16 16 16 16 18 19 23 27 30 35 38 40 41 39 39 41 41 41 41 40 40 41 41 41 42 43 43 43 42 42 42 41 41 39 37 36 34 34
7 4 7 14 10 15 24 19 14 13 7 3 5 8 6 3 5 2 3 0 3 2 4 3 5 6 5 9 11 10 12 13 15 19 21 28 30 24 26 32 30 29 27 24 25 28 26 23 20 20 20 20 19 18 19 22 25 29 32 36 38 37 38 40 40 40 39 39 40 40 40 40 40 41 42 41 41 41 41 42 41 39 38 37 36 36
4 2 4 12 11 18 26 19 14 12 6 4 8 9 3 3 2 2 2 1 3 3 4 3 9 7 3 6 7 10 14 14 15 16 16 21 23 21 24 30 27 23 19 17 21 25 26 25 24 24 23 22 20 18 18 19 21 24 27 31 35 36 37 39 39 39 38 39 40 40 39 39 39 40 39 39 40 40 42 42 41 40 39 38 38 37
3 2 3 11 14 13 12 10 7 6 1 2 5 5 6 2 2 3 3 2 3 5 4 4 9 8 7 8 4 8 16 17 18 20 14 11 15 18 23 26 23 18 15 17 22 25 26 25 24 22 20 19 18 18 18 18 20 23 25 29 32 34 36 37 38 39 39 40 40 39 39 38 38 38 37 38 39 40 42 41 40 40 39 38 38 37
3 3 4 7 10 8 7 7 8 7 4 0 1 3 4 2 3 5 5 2 3 5 5 4 6 5 9 11 8 10 13 14 17 19 13 12 19 25 27 28 26 23 22 22 22 22 23 22 20 19 17 18 18 19 19 19 20 22 23 26 28 30 32 35 37 38 39 39 39 39 39 38 38 37 37 37 38 40 41 39 39 40 39 38 38 36
2 3 4 2 4 6 5 8 13 14 10 6 6 8 6 3 1 1 3 3 3 5 4 5 7 8 6 6 9 13 12 12 14 14 12 18 26 31 33 32 29 25 24 24 22 19 19 19 19 19 18 18 20 20 21 21 20 20 21 23 25 26 29 32 34 35 36 36 37 37 37 37 37 37 37 38 39 39 39 38 38 38 38 38 36 35
4 3 6 3 3 6 7 12 18 19 16 13 11 12 12 10 6 4 6 5 2 5 5 4 9 11 5 5 9 13 12 12 15 15 14 21 25 25 25 24 23 22 20 20 21 18 17 18 18 18 18 18 19 20 21 21 21 21 22 22 24 26 28 30 31 32 33 33 34 35 35 35 36 37 38 38 38 38 37 37 37 37 37 37 35 34
6 2 7 6 4 6 7 6 6 9 14 15 10 8 11 10 8 9 10 6 5 7 5 2 7 11 6 7 9 12 13 17 23 23 18 22 25 23 22 21 21 22 19 17 18 17 16 17 17 17 17 16 17 18 19 21 22 23 24 25 26 27 28 29 29 29 30 31 32 33 33 35 36 36 37 37 37 37 37 36 36 36 36 35 34 33
5 1 5 7 3 4 5 5 6 4 7 12 8 5 8 11 12 10 6 5 7 9 8 4 8 12 7 8 9 10 14 18 25 28 23 22 27 28 28 24 20 19 18 17 18 18 16 16 16 15 15 15 16 17 18 19 21 23 24 26 27 28 29 29 29 29 29 30 31 32 33 34 35 36 36 37 37 36 36 35 35 34 34 33 32 32
8 4 6 8 4 4 4 4 4 3 3 7 10 11 12 15 15 6 1 2 5 9 12 8 9 14 7 4 7 8 9 10 16 22 21 20 27 30 27 22 19 19 19 18 19 18 17 17 16 15 16 16 17 17 18 19 20 22 24 25 26 26 27 29 30 30 31 31 31 32 33 34 34 35 36 36 36 35 34 33 32 32 32 32 31 31
10 6 8 10 8 9 9 7 7 6 4 5 9 14 15 17 19 11 6 8 8 11 14 10 12 15 7 0 5 9 7 8 13 17 18 21 26 29 26 22 20 21 21 20 19 18 18 17 16 16 16 17 18 19 20 20 21 22 23 24 24 24 24 26 27 29 31 32 32 33 33 34 34 34 34 33 33 32 31 31 31 31 31 31 31 30
4 5 10 12 13 13 9 6 4 4 6 7 11 18 20 20 23 18 11 11 12 11 12 12 14 18 14 7 7 8 7 9 11 12 15 22 28 31 29 23 22 24 24 21 20 19 18 17 17 16 16 16 18 19 20 21 21 22 22 23 24 24 24 24 25 26 28 30 32 33 33 34 34 33 32 31 30 29 29 29 30 30 30 30 31 30
3 8 16 16 19 18 10 4 2 3 9 13 17 22 23 22 22 19 15 16 15 11 12 15 15 18 23 17 9 7 9 8 8 10 17 25 30 32 29 24 24 26 24 22 20 19 19 19 17 16 16 16 16 17 19 19 20 20 20 20 21 22 22 23 24 25 26 27 28 28 29 30 31 31 30 29 28 28 28 29 29 29 29 28 28 28
2 9 17 17 21 23 15 7 4 3 6 10 15 19 21 22 22 22 22 23 19 13 15 18 18 20 26 20 9 9 10 10 13 19 25 28 28 25 23 23 25 24 22 21 20 20 20 19 17 17 17 17 16 17 18 19 19 19 18 17 17 18 18 20 21 22 22 22 22 22 22 23 25 26 27 27 27 27 26 26 26 25 25 25 25 25
4 7 12 12 16 20 19 12 5 4 5 5 9 13 16 18 20 21 22 23 22 18 17 19 19 19 21 18 11 12 13 15 19 21 21 21 21 20 21 24 25 24 23 23 22 22 22 19 17 18 18 18 17 18 18 19 18 18 17 16 15 15 15 16 17 17 18 18 18 18 19 20 21 22 22 23 23 23 22 22 22 22 22 22 22 22
9 10 10 9 10 14 17 14 10 9 9 9 10 11 12 16 18 19 19 19 18 17 19 22 20 17 18 18 13 11 11 13 15 15 15 18 20 21 23 25 27 26 26 26 26 26 24 21 19 20 20 19 18 18 19 18 17 17 16 15 14 13 13 13 13 14 15 15 15 17 17 18 18 18 19 19 19 19 19 19 20 20 20 20 20 21
9 9 8 8 9 12 13 14 14 12 10 13 14 12 12 14 14 15 17 19 18 19 22 23 17 16 19 15 8 8 11 12 11 13 17 20 22 23 25 29 30 28 27 28 28 28 26 24 23 23 23 21 20 21 21 19 19 18 16 15 13 12 11 11 12 12 12 13 14 15 15 15 16 16 17 17 17 18 18 18 19 19 19 20 20 21
7 8 7 7 8 12 13 13 13 12 10 11 13 14 16 16 15 15 16 19 20 18 16 16 17 19 12 2 5 10 12 14 16 19 22 24 26 28 30 31 30 29 29 29 30 30 29 27 25 24 24 22 22 23 24 23 22 19 17 16 14 13 12 12 11 11 11 12 13 14 14 14 15 16 16 17 17 18 18 19 19 19 20 20 21 22
6 9 8 7 8 12 13 9 7 9 11 9 8 16 21 20 18 18 18 21 23 19 14 14 17 17 7 4 14 16 13 19 27 31 33 31 29 30 31 32 31 31 33 31 31 32 30 27 25 23 24 25 24 25 27 27 25 21 19 17 16 16 15 14 13 13 13 13 14 15 16 16 17 17 18 18 18 19 20 20 20 20 20 21 21 22
8 8 5 5 6 8 6 8 7 9 7 2 2 12 19 19 17 17 17 21 22 19 18 19 21 22 20 21 22 13 12 24 31 32 36 37 36 35 34 34 33 33 35 36 36 35 32 29 27 25 26 27 26 27 30 31 28 25 23 22 21 20 18 17 17 16 16 17 17 17 18 18 19 20 20 20 20 21 21 21 21 21 21 21 21 21
6 7 4 2 4 3 4 6 7 3 2 3 3 8 12 12 12 12 13 19 21 21 22 23 27 31 27 24 24 16 14 21 23 27 36 40 42 43 42 41 41 39 40 43 43 41 38 36 34 30 28 28 29 31 34 35 32 29 28 27 25 24 22 21 21 21 21 21 21 20 20 21 21 22 22 22 23 23 22 22 22 22 22 22 22 21
3 4 3 3 4 4 4 6 5 3 1 4 5 6 10 12 13 14 12 17 21 24 22 19 25 30 25 28 36 28 16 11 11 22 38 43 42 43 44 46 49 48 48 49 49 48 46 43 41 37 33 32 34 36 37 37 36 33 30 29 28 27 26 26 26 26 25 25 25 24 24 24 24 24 25 25 25 25 24 23 23 23 22 23 22 22
2 1 1 4 3 3 4 4 4 6 8 7 5 7 12 15 14 13 10 13 16 19 21 20 25 29 27 31 31 16 5 5 8 20 38 43 40 41 43 44 48 49 50 52 52 53 52 50 48 46 41 38 39 39 39 40 39 36 32 31 30 29 28 28 28 28 28 28 27 27 27 28 27 27 27 27 27 27 26 25 24 24 24 23 23 22
3 1 1 2 1 2 2 3 5 6 5 5 5 5 10 13 10 10 5 12 13 13 21 24 25 27 28 25 14 7 4 9 13 19 26 28 30 37 40 43 47 48 48 50 51 52 53 51 49 47 44 43 41 40 41 42 41 38 34 32 31 30 30 30 29 29 28 28 28 29 29 28 28 28 28 28 27 27 26 25 25 25 24 23 22 20
4 2 1 3 3 3 2 2 3 3 3 4 5 4 6 15 15 9 6 12 8 11 22 24 23 30 33 20 8 8 8 15 19 19 14 14 25 34 39 45 50 49 49 50 51 50 50 50 48 45 43 42 40 38 40 44 44 40 35 33 33 32 31 30 29 29 28 27 28 30 30 29 28 28 28 27 27 26 25 25 25 24 24 22 20 19
3 3 3 4 5 5 5 3 2 2 4 5 5 6 12 15 9 7 10 7 1 12 24 27 27 33 32 17 12 13 21 32 39 34 23 21 27 32 38 44 46 45 47 50 50 50 49 49 49 46 42 40 38 37 39 43 45 43 36 34 35 34 33 31 30 30 29 28 29 30 31 31 29 27 26 26 25 25 25 25 24 24 23 21 20 19
4 3 3 4 4 3 3 3 3 4 5 4 6 11 15 12 4 7 7 6 3 5 15 24 31 34 28 21 24 30 38 46 49 42 36 35 34 36 42 44 42 42 45 47 49 50 49 49 49 47 43 41 40 39 38 40 44 43 38 37 37 35 34 33 32 33 33 31 30 30 31 31 29 27 26 25 25 25 24 24 24 23 22 21 21 19
5 4 3 4 4 2 2 4 4 4 3 5 9 6 6 6 3 4 5 10 10 6 4 10 20 26 26 27 33 39 42 44 44 42 43 45 43 46 50 49 45 45 45 45 47 48 48 48 49 47 44 42 42 40 38 39 42 41 39 39 38 36 35 35 34 35 35 33 32 32 32 31 29 27 26 25 24 24 24 24 23 22 22 21 20 20
3 4 3 3 3 3 3 4 4 2 2 8 10 3 7 12 7 10 10 12 17 18 14 12 15 19 20 24 32 37 39 40 41 43 45 45 47 51 53 52 51 50 49 48 48 47 47 48 48 47 45 43 41 40 39 40 41 41 40 39 38 37 37 36 37 38 37 35 34 33 32 30 28 27 26 25 25 25 25 24 22 21 22 22 21 21
4 4 4 3 3 3 3 5 7 5 6 12 13 5 9 13 14 19 19 18 22 25 22 20 23 25 27 28 29 30 32 35 39 43 44 45 48 50 50 52 53 52 52 51 49 47 47 46 46 47 45 43 42 41 41 42 42 42 41 41 40 39 37 37 39 39 38 36 35 33 32 30 28 27 26 25 25 25 24 24 23 23 23 24 23 22
3 2 2 1 2 3 4 7 9 8 6 12 16 13 16 20 22 26 29 30 32 35 36 33 30 31 32 32 30 30 32 33 35 38 41 42 45 47 48 49 50 49 50 50 48 48 47 45 45 46 45 45 44 42 43 44 44 44 43 41 40 38 38 39 40 40 38 37 35 33 31 30 28 27 26 26 25 25 24 24 24 24 24 24 23 21
3 1 1 1 1 2 4 7 10 13 15 15 17 19 24 28 30 30 32 34 36 38 40 37 35 34 35 35 34 34 36 36 35 36 36 37 39 41 43 44 44 44 44 44 44 45 46 46 46 45 45 45 44 43 44 45 45 44 43 41 39 38 38 40 41 40 38 36 34 32 30 29 28 27 27 26 26 26 26 26 25 24 24 23 23 22
2 0 2 4 4 4 5 9 12 17 20 19 18 20 23 27 28 28 29 31 32 33 35 35 36 37 38 39 39 37 36 37 38 36 35 36 37 40 43 45 45 44 42 40 39 40 43 45 45 45 45 44 44 45 46 45 44 44 42 41 39 39 40 41 40 39 37 34 32 31 30 29 29 28 27 27 27 27 27 27 26 25 23 22 22 21
2 2 2 3 2 3 7 11 10 10 14 17 21 25 26 27 29 29 29 30 31 33 34 34 34 35 36 39 40 37 36 39 40 37 35 38 41 44 46 49 50 49 46 41 38 38 41 43 44 44 44 43 44 46 46 44 43 42 41 41 40 40 40 39 37 36 35 33 32 31 30 30 29 29 29 29 29 28 27 26 25 24 23 22 21 21
3 4 3 1 2 4 8 10 6 2 7 13 17 19 20 21 23 26 27 29 30 33 34 33 31 32 35 38 39 38 37 40 41 38 37 39 43 46 47 48 49 49 47 42 37 37 39 40 40 41 43 44 45 45 45 43 42 40 39 39 39 39 38 36 35 35 34 33 32 32 31 31 31 31 31 30 29 29 28 26 24 23 22 22 22 22
7 6 5 4 5 9 14 18 12 6 9 15 18 19 20 20 22 25 29 32 34 35 35 33 31 32 36 40 41 40 39 40 39 38 38 40 44 46 46 44 43 41 41 39 35 34 34 35 37 40 42 44 44 43 42 41 38 36 36 37 37 36 36 35 35 34 34 34 33 32 32 32 32 32 31 29 28 29 29 28 27 25 24 23 22 20
Wind_Direction
182 186 198 203 199 198 198 198 220 263 141 155 172 197 189 196 232 220 238 249 188 179 229 222 228 250 259 260 248 249 252 258 263 264 264 264 265 265 263 263 261 255 251 250 253 256 258 257 256 255 251 250 247 245 245 242 241 240 238 238 237 237 238 238 238 237 237 237 236 236 235 234 233 232 233 236 240 242 243 246 246 247 247 248 249 251
186 209 218 210 201 187 187 190 199 206 165 163 175 197 203 206 232 225 227 254 196 197 253 227 229 252 259 263 258 253 246 252 254 255 259 259 261 262 260 259 258 256 252 249 250 253 255 255 255 256 252 249 247 245 243 242 241 241 240 240 240 239 239 239 239 239 239 239 239 239 239 240 239 238 238 239 242 245 247 248 248 248 248 248 249 251
197 226 225 199 152 146 163 181 184 194 182 181 173 184 213 206 255 270 245 259 193 203 257 244 236 254 262 266 263 251 238 251 256 253 257 258 258 259 258 258 257 256 253 248 248 250 253 254 254 255 254 251 249 247 245 244 243 242 241 241 241 240 240 240 241 241 242 243 244 245 246 246 246 245 245 245 246 247 248 249 249 250 250 249 250 252
227 237 217 169 139 150 157 182 196 235 212 196 175 179 212 169 156 251 249 227 203 195 220 263 269 262 269 279 271 254 245 253 260 258 259 259 256 258 260 261 259 257 256 253 251 252 252 254 252 252 254 253 251 248 246 244 243 242 241 242 241 240 241 241 241 243 244 246 248 250 251 251 250 249 249 248 247 246 247 248 249 250 250 250 252 252
241 248 166 160 160 157 165 196 198 214 223 215 203 193 199 171 186 221 225 169 263 280 150 10 305 275 249 262 267 260 247 251 260 260 260 258 256 257 259 260 259 257 257 257 255 254 253 253 253 252 253 253 251 249 246 245 243 242 242 242 242 242 242 242 242 244 245 247 248 248 249 249 247 246 245 245 245 245 246 248 249 251 251 251 253 253
236 230 164 172 168 150 179 208 200 200 213 230 223 201 192 182 197 206 158 107 13 300 265 107 285 280 244 251 262 268 264 257 261 258 258 259 256 255 255 255 256 256 257 257 257 257 256 255 254 253 252 251 250 249 248 247 246 245 244 244 244 244 244 244 244 244 245 246 247 247 246 245 244 243 243 243 245 246 247 249 250 251 252 252 253 253
224 210 182 177 169 172 194 211 204 194 203 236 212 178 186 194 202 195 158 154 230 257 293 110 212 274 295 266 258 264 276 269 265 256 255 259 258 254 253 254 256 256 258 258 257 257 256 256 255 253 251 250 250 250 249 249 248 247 246 245 245 245 245 245 245 245 245 246 246 247 248 248 248 248 248 248 249 250 251 252 252 252 253 253 254 255
174 182 181 172 178 185 199 210 203 187 198 235 165 156 189 201 198 195 166 186 228 258 321 88 174 276 282 255 245 247 258 270 271 265 257 259 260 257 256 257 257 257 259 260 260 258 256 255 255 253 252 251 252 251 249 247 248 249 248 248 247 246 246 246 246 246 246 246 246 247 248 250 251 252 253 254 254 255 255 254 253 253 253 253 254 255
155 176 178 173 180 187 206 215 196 177 204 241 156 157 181 171 154 164 165 187 347 2 268 218 139 271 269 253 254 247 242 250 257 257 257 258 258 258 259 259 259 260 262 262 261 261 260 259 258 257 256 255 254 252 249 246 247 250 251 250 248 246 247 247 247 247 247 247 248 248 249 250 252 253 255 257 257 257 256 255 255 254 253 253 254 254
161 195 187 170 175 199 213 218 181 178 210 218 157 137 120 96 87 104 140 143 84 305 248 227 163 231 267 238 199 242 237 233 246 254 256 255 255 256 258 259 261 262 263 264 265 266 265 264 264 263 261 258 255 253 250 247 246 248 250 250 248 247 248 248 247 248 248 248 248 249 250 251 252 254 255 257 257 257 257 256 255 254 254 254 254 254
102 192 183 177 194 201 199 188 174 187 198 117 133 113 81 49 54 72 50 71 125 238 244 222 178 195 267 232 181 210 211 208 227 247 253 253 253 255 256 259 260 261 264 268 272 273 269 266 265 263 261 259 257 253 249 246 244 245 247 247 248 249 249 249 249 249 249 249 248 249 250 252 253 254 255 256 256 256 257 257 257 257 257 256 256 256
7 147 169 197 199 180 122 120 164 165 132 90 154 140 119 351 38 74 30 73 216 241 245 220 177 179 238 240 183 226 231 212 218 234 247 253 254 255 257 260 261 261 265 269 273 278 274 265 261 260 260 258 255 252 249 246 243 243 244 245 247 248 249 249 250 250 250 250 250 250 250 251 253 254 255 256 257 257 258 259 260 260 260 260 259 259
224 180 183 193 189 174 139 123 88 100 140 169 290 164 165 202 192 188 204 186 230 243 260 213 164 185 237 244 231 243 254 241 232 235 242 247 253 258 262 267 268 265 266 269 275 283 277 263 259 259 261 260 256 253 251 248 244 242 243 244 245 247 249 250 250 250 250 251 251 251 251 251 252 254 255 256 258 259 260 261 262 262 262 262 262 262
206 228 199 159 179 183 170 155 171 170 173 184 189 183 184 182 194 208 204 213 238 240 276 114 158 219 260 258 238 233 241 242 241 244 249 252 258 263 267 270 271 268 269 272 274 280 279 266 262 263 263 261 258 256 254 250 245 241 241 242 244 247 249 250 250 251 251 251 252 253 253 253 253 253 254 256 258 259 260 262 263 264 264 264 265 265
195 224 190 177 178 177 183 194 191 174 175 192 189 189 199 186 194 206 197 212 232 247 286 165 179 212 236 255 244 238 254 262 262 261 262 264 264 266 267 267 268 266 267 267 261 265 273 268 262 266 266 264 261 257 255 253 248 243 240 241 244 248 249 250 250 251 251 252 253 253 254 254 254 255 255 257 258 259 260 262 264 265 266 267 267 268
206 234 181 187 180 167 189 209 187 144 165 199 166 189 222 199 171 184 207 207 212 267 271 214 224 231 232 272 281 267 275 276 270 268 267 266 263 262 263 263 264 265 266 263 254 252 259 260 261 267 270 272 269 260 254 252 249 245 241 241 243 246 249 250 251 251 252 253 254 254 255 255 255 255 256 256 257 258 260 261 263 266 268 269 270 270
205 243 180 186 178 177 196 198 173 166 176 172 169 201 218 139 126 160 259 235 98 234 241 206 252 280 301 284 263 251 272 278 271 265 258 259 260 257 257 260 263 265 267 262 246 242 249 254 259 266 269 273 272 265 258 253 249 247 244 242 243 244 247 250 251 252 254 254 254 255 256 257 256 257 257 257 259 260 261 262 264 267 268 270 270 271
176 252 190 179 189 203 202 192 182 186 160 133 194 199 149 68 86 129 239 6 82 239 254 215 238 246 263 269 236 217 243 259 266 261 246 248 253 248 250 256 259 263 267 253 234 235 245 252 260 266 268 268 267 263 260 255 250 249 246 244 244 245 248 251 253 255 256 256 256 256 257 258 258 259 260 261 263 262 262 263 265 266 267 269 270 271
158 270 242 190 196 201 186 176 203 229 190 143 197 169 126 173 225 154 188 206 171 226 263 231 231 227 219 236 212 199 221 228 243 252 246 242 245 238 241 247 248 253 260 247 234 237 246 255 263 267 264 261 260 257 255 251 247 246 245 246 247 248 251 254 255 257 257 258 257 258 259 259 260 262 263 264 264 263 263 264 265 266 267 268 269 271
174 206 243 206 192 170 143 172 204 215 223 235 135 141 137 199 204 179 206 222 181 221 258 249 233 233 225 222 205 207 217 219 234 248 253 253 248 242 242 243 245 255 263 253 241 243 251 258 263 261 256 254 254 252 250 246 243 241 240 243 245 247 250 252 254 255 255 256 256 257 257 258 259 260 261 261 262 262 263 264 265 266 267 269 270 271
192 208 235 225 163 160 163 194 198 195 191 187 188 186 184 192 170 180 219 204 181 216 241 257 254 254 240 209 196 207 214 217 228 239 248 249 247 246 246 243 245 259 264 251 244 249 254 256 256 252 249 249 250 249 245 241 239 237 236 238 239 241 244 246 248 250 251 252 253 253 253 254 255 256 257 258 259 261 262 263 264 266 267 268 269 270
191 201 216 214 166 187 199 199 202 200 187 186 199 195 191 190 179 194 208 193 192 219 202 221 257 260 242 182 190 203 210 217 222 223 234 242 243 246 247 242 247 260 257 243 244 251 250 247 245 242 242 246 248 248 244 239 237 236 235 236 237 240 242 244 246 247 248 249 249 249 248 249 251 252 254 256 257 259 260 261 263 265 267 268 269 270
186 182 213 226 217 210 215 209 224 220 197 199 212 204 197 191 180 198 210 193 188 213 200 187 264 269 239 187 192 197 203 215 222 224 234 248 251 253 255 258 261 258 245 232 235 239 236 234 231 231 237 243 246 248 246 242 240 239 239 240 240 242 243 244 246 246 246 246 245 245 246 246 248 250 252 253 254 256 258 260 262 264 266 267 268 270
178 138 208 230 263 251 266 319 345 325 209 210 225 216 201 197 196 202 205 189 190 206 210 212 253 263 244 197 204 210 209 216 226 230 237 250 255 256 258 261 258 244 229 222 225 227 224 220 219 225 234 239 244 246 246 245 244 243 244 244 245 246 246 245 246 246 246 245 244 245 245 245 246 248 250 251 252 254 256 258 261 263 265 266 266 267
182 180 192 218 235 228 247 282 296 301 234 215 214 208 203 200 201 201 90 206 209 206 207 211 240 254 251 180 204 226 226 231 241 241 240 246 252 254 254 251 242 230 225 224 223 220 217 216 221 228 234 240 243 246 247 247 247 247 247 248 249 249 248 246 246 247 247 248 248 248 248 247 248 248 250 251 253 256 258 260 262 262 263 264 264 265
188 196 195 213 214 207 213 215 221 222 215 221 211 205 205 199 196 198 200 212 215 206 204 209 230 244 262 75 220 233 229 236 250 249 245 246 250 252 250 244 235 228 227 225 220 218 219 223 230 234 236 241 243 246 249 249 249 250 250 250 251 251 251 249 247 247 247 248 249 250 250 251 251 252 253 255 257 259 260 260 261 261 261 262 262 264
178 215 205 219 225 224 221 212 216 181 171 198 205 203 208 205 199 200 204 210 216 215 213 217 229 243 254 242 226 234 220 220 239 242 239 242 244 246 245 238 227 224 225 222 217 218 225 230 234 236 236 239 243 246 250 251 252 252 252 252 251 251 252 250 249 248 247 248 249 250 251 251 252 253 255 256 257 257 257 257 257 257 258 259 260 261
158 219 211 219 230 233 229 193 177 161 178 198 206 206 209 209 203 203 210 213 211 216 229 226 222 241 250 239 214 222 225 220 233 232 230 234 238 243 245 236 225 223 220 216 216 222 230 234 234 232 229 231 237 243 248 251 254 254 253 252 249 249 249 248 248 248 248 249 250 250 251 251 251 251 251 251 251 250 250 250 251 252 253 255 256 257
146 219 213 215 226 232 229 200 146 145 190 202 212 215 214 211 207 206 213 215 210 212 231 228 215 227 245 243 213 206 215 211 219 223 225 230 236 245 248 238 231 226 217 215 223 229 233 236 235 232 229 228 232 239 244 248 250 252 252 250 247 246 245 242 243 245 246 247 247 247 246 243 243 242 242 242 243 243 244 245 246 247 248 249 250 251
174 219 218 217 228 234 229 216 178 169 202 209 215 223 225 223 219 216 218 220 219 222 234 238 234 236 246 248 228 213 214 217 226 231 233 235 238 243 242 235 231 226 218 220 227 229 230 231 234 235 231 228 233 238 241 242 242 243 243 241 240 239 237 236 238 238 238 238 237 234 232 230 231 231 232 234 235 235 236 237 239 241 242 243 245 248
200 219 211 204 233 243 234 228 216 202 212 224 220 219 226 229 228 227 228 228 227 230 235 241 246 246 247 248 237 214 208 219 231 237 238 237 234 233 232 230 228 222 218 222 224 225 226 227 230 234 231 229 233 236 235 233 230 228 227 226 227 226 226 228 229 229 230 228 226 225 224 224 224 225 226 226 227 229 230 231 234 237 240 243 245 249
207 219 204 197 226 238 229 224 225 218 220 234 230 218 220 227 226 226 229 228 224 223 229 237 243 246 248 249 234 198 197 213 225 224 227 232 230 228 226 225 224 221 219 224 226 225 227 227 228 230 230 229 230 231 231 227 220 217 217 215 214 214 216 218 220 222 221 220 221 223 224 224 223 222 223 224 225 227 228 230 233 235 239 242 245 247
193 200 199 197 217 236 229 214 216 221 226 236 226 208 212 219 217 220 231 235 232 227 226 229 233 241 251 232 201 212 203 210 224 222 224 229 227 226 227 225 223 223 225 228 229 229 229 228 228 229 230 231 232 236 235 228 222 220 217 214 215 217 220 221 223 226 226 225 226 226 224 224 224 223 223 224 225 226 228 230 232 234 237 239 241 244
179 193 201 193 208 235 225 187 186 220 227 231 210 200 209 214 212 216 224 229 230 230 233 240 246 255 271 228 230 231 206 209 223 226 228 232 230 229 232 229 226 229 233 234 234 235 234 232 232 234 235 235 237 240 236 227 223 222 220 220 224 226 228 230 231 234 235 235 234 232 229 227 225 225 224 224 226 227 229 231 232 234 236 237 239 241
176 187 194 197 213 224 190 157 192 222 216 212 187 194 201 208 214 221 231 236 236 236 238 248 255 254 247 241 245 250 223 221 227 229 231 234 236 237 238 237 232 230 236 240 239 238 237 236 237 239 239 238 238 239 234 226 222 223 225 228 231 232 235 239 241 242 242 239 237 235 233 231 229 228 227 227 228 229 231 232 233 234 235 236 238 240
184 182 170 188 203 187 151 176 210 229 97 121 190 185 182 197 214 219 237 246 240 234 231 233 241 246 248 252 259 264 249 236 236 237 235 235 236 237 239 242 241 237 238 244 245 243 240 241 244 247 248 245 243 241 235 228 225 226 230 233 235 237 242 246 247 248 247 244 241 238 236 235 234 232 231 230 231 232 232 233 234 234 234 235 237 238
192 186 179 199 202 199 203 201 216 303 309 192 201 182 171 184 194 196 222 242 233 229 229 228 239 247 249 251 252 250 245 245 249 246 241 236 235 236 237 241 244 243 243 247 250 250 249 251 255 260 260 254 249 246 239 231 227 228 232 235 238 241 245 248 248 248 247 246 243 241 240 239 237 236 234 233 233 233 233 234 235 235 234 234 235 236
200 255 229 218 216 198 198 201 216 239 235 217 214 207 197 197 190 178 206 245 238 225 220 224 238 243 241 244 246 240 225 254 263 253 246 239 235 236 238 241 244 245 246 247 250 253 255 256 259 263 264 260 254 248 240 233 229 230 234 238 239 241 244 246 246 245 244 244 242 242 242 241 240 240 238 237 236 236 235 235 235 235 234 233 234 234
199 335 344 251 249 185 187 213 212 221 239 219 207 227 215 196 159 119 172 248 251 218 211 221 234 240 245 247 231 158 165 249 255 254 250 243 239 240 241 243 245 245 245 247 249 251 254 256 257 259 261 260 257 248 240 234 231 231 236 240 239 239 241 243 243 242 242 243 243 244 245 244 244 243 242 242 242 241 240 239 236 236 235 233 233 234
187 178 200 222 230 215 209 229 218 238 269 211 200 247 196 162 137 117 200 247 252 192 203 218 230 240 246 243 190 156 205 236 247 256 259 251 249 249 248 248 249 247 246 248 249 250 252 254 253 254 255 257 258 252 242 236 233 233 238 239 237 237 240 241 241 240 240 242 245 246 247 248 247 247 245 245 244 244 244 243 240 238 236 235 235 235
184 186 197 211 225 218 209 234 271 267 244 222 213 196 158 140 138 182 210 239 133 166 196 212 225 240 243 222 186 213 234 240 248 257 264 261 257 256 257 256 254 252 251 252 253 252 253 253 253 253 252 253 256 253 246 239 234 234 238 238 236 238 241 241 239 238 239 242 246 248 248 249 249 248 246 244 243 243 243 243 243 240 238 235 233 232
173 172 190 205 217 213 200 226 270 265 243 215 183 173 154 143 189 224 224 276 309 172 201 215 224 237 240 219 216 234 243 247 251 255 259 259 257 259 261 262 259 255 254 254 254 253 252 252 253 253 253 251 252 252 248 241 235 235 239 240 240 242 242 239 239 239 240 243 247 249 249 249 249 247 243 240 239 240 241 241 241 239 237 234 230 229
169 162 190 204 193 170 182 206 218 262 265 141 132 147 164 171 225 296 300 289 295 324 311 244 237 243 241 231 233 241 247 252 255 256 256 256 256 258 260 261 259 258 258 257 255 254 253 251 252 253 252 250 249 247 242 235 233 237 242 243 244 245 242 240 241 241 240 244 249 250 249 250 249 245 239 236 235 235 236 237 236 234 234 232 228 226
182 174 187 204 185 160 180 208 199 231 235 160 143 150 222 213 249 327 326 303 307 321 328 318 301 289 273 256 250 250 252 254 257 258 258 258 258 259 259 260 260 259 260 260 259 258 256 252 252 252 251 248 246 242 235 233 237 243 245 246 245 244 241 241 241 240 240 245 250 249 249 249 246 240 234 231 230 230 230 231 230 228 228 227 224 222
222 197 171 188 216 186 179 217 222 218 202 186 181 214 252 246 275 305 307 302 303 306 307 308 308 307 302 291 279 272 269 264 262 263 263 264 264 264 263 264 264 262 262 261 259 258 256 254 253 253 251 249 246 241 238 240 243 246 246 246 245 243 242 242 241 240 242 247 249 248 247 245 240 235 230 227 226 226 225 226 225 222 222 222 220 218
250 218 136 130 270 263 261 255 248 251 233 200 202 233 266 272 279 288 293 294 295 295 297 298 299 300 299 297 293 290 288 285 279 276 273 271 271 271 271 270 269 268 266 264 260 258 256 255 253 252 251 249 246 243 242 243 244 244 245 244 243 242 242 242 241 242 245 248 248 245 243 241 236 231 227 224 223 222 222 223 224 222 220 219 217 214
298 216 165 185 206 241 259 252 240 244 247 234 226 238 253 261 267 273 280 285 288 290 292 292 293 293 293 293 292 291 294 296 294 290 288 285 283 283 284 283 279 275 271 269 267 262 258 254 252 250 250 249 247 244 243 242 241 241 241 239 238 238 239 240 241 244 246 246 244 240 238 236 233 228 224 222 221 219 217 218 220 221 220 217 215 211
294 332 188 208 203 201 245 255 247 248 254 255 251 251 254 261 267 271 274 278 282 285 287 289 291 290 291 293 294 293 295 298 297 295 296 296 293 292 292 291 289 285 279 275 271 266 260 256 253 250 249 248 247 245 242 239 238 237 235 234 233 234 236 239 242 244 243 241 238 236 233 230 228 225 223 222 220 218 216 215 215 216 216 215 214 213
278 287 194 186 233 267 275 271 265 270 277 270 260 259 262 266 270 272 275 278 280 283 286 289 293 295 299 302 302 299 298 300 300 300 300 300 299 295 293 292 292 289 283 276 269 263 259 256 253 250 247 246 245 243 240 236 234 233 231 231 232 233 234 237 238 238 237 235 232 230 227 224 223 222 221 220 218 215 213 212 212 212 211 210 211 211
241 250 211 158 289 268 260 256 246 261 280 269 265 268 272 273 274 276 279 283 287 291 293 294 297 303 308 309 307 304 301 301 304 306 305 305 302 298 294 292 290 286 281 275 266 258 253 251 249 247 244 243 242 240 237 234 232 231 229 229 230 230 231 232 233 233 232 231 228 226 223 221 219 219 219 219 216 211 207 204 205 206 205 206 207 207
220 225 199 191 234 246 252 256 251 241 261 271 280 285 287 288 285 281 283 287 290 294 296 296 298 303 307 307 307 305 302 303 306 308 307 307 304 299 295 293 290 285 279 273 266 257 250 246 245 243 241 241 239 236 234 233 231 228 226 225 225 227 229 230 231 230 229 227 225 222 221 219 218 217 215 214 211 208 204 200 199 199 200 201 201 199
Height
1534 1537 1536 1533 1531 1532 1534 1536 1536 1537 1537 1540 1545 1547 1547 1547 1546 1544 1542 1540 1540 1543 1544 1542 1543 1538 1529 1529 1531 1531 1533 1533 1530 1527 1526 1526 1526 1526 1525 1524 1523 1522 1522 1525 1526 1525 1526 1527 1528 1529 1531 1532 1533 1534 1534 1535 1535 1536 1538 1538 1539 1541 1543 1544 1545 1546 1547 1548 1549 1550 1550 1551 1553 1555 1556 1557 1557 1559 1560 1561 1562 1562 1562 1563 1563 1564
1534 1534 1531 1528 1528 1530 1533 1536 1537 1538 1538 1539 1543 1546 1547 1546 1544 1542 1541 1541 1541 1543 1542 1540 1542 1538 1530 1527 1527 1529 1531 1529 1525 1524 1523 1523 1523 1522 1521 1520 1520 1520 1520 1522 1522 1522 1524 1524 1525 1526 1527 1528 1529 1530 1531 1531 1532 1533 1535 1535 1536 1539 1540 1540 1542 1543 1544 1544 1546 1547 1548 1550 1552 1553 1554 1554 1555 1557 1558 1559 1559 1560 1560 1561 1561 1562
1534 1531 1526 1526 1529 1531 1534 1536 1538 1539 1539 1540 1542 1545 1547 1546 1545 1543 1540 1540 1542 1543 1541 1539 1541 1537 1529 1525 1524 1526 1527 1522 1519 1521 1520 1519 1520 1518 1516 1516 1517 1517 1517 1517 1518 1519 1520 1521 1522 1523 1523 1525 1526 1527 1528 1529 1530 1531 1531 1532 1533 1535 1536 1537 1539 1539 1540 1542 1544 1546 1547 1549 1550 1551 1552 1553 1554 1554 1555 1556 1556 1557 1558 1559 1559 1560
1534 1527 1523 1527 1529 1531 1535 1538 1539 1541 1541 1541 1542 1545 1546 1544 1546 1544 1541 1541 1542 1542 1541 1540 1540 1536 1529 1524 1521 1520 1520 1517 1515 1517 1516 1516 1515 1513 1512 1513 1513 1513 1512 1512 1513 1515 1516 1518 1519 1519 1519 1521 1523 1523 1525 1526 1527 1527 1528 1529 1530 1532 1533 1534 1535 1536 1538 1540 1542 1544 1545 1546 1547 1548 1549 1550 1550 1551 1551 1552 1553 1554 1555 1556 1557 1558
1530 1523 1521 1525 1528 1531 1537 1540 1540 1542 1542 1541 1540 1542 1543 1542 1543 1541 1540 1540 1541 1541 1540 1541 1541 1533 1526 1524 1517 1514 1516 1514 1512 1513 1512 1511 1509 1509 1509 1509 1508 1508 1508 1508 1508 1510 1512 1513 1514 1515 1516 1518 1518 1519 1520 1522 1523 1524 1524 1525 1527 1529 1530 1531 1533 1534 1537 1538 1539 1540 1542 1542 1543 1543 1543 1544 1544 1545 1547 1548 1549 1550 1552 1554 1555 1556
1526 1524 1523 1524 1528 1532 1537 1539 1539 1540 1542 1541 1538 1537 1539 1540 1540 1540 1540 1541 1542 1543 1539 1542 1546 1532 1521 1522 1517 1512 1515 1513 1510 1510 1508 1504 1504 1505 1505 1503 1502 1503 1503 1503 1504 1505 1507 1509 1510 1511 1513 1514 1514 1515 1517 1519 1520 1521 1522 1523 1524 1525 1526 1528 1530 1532 1534 1535 1535 1536 1537 1537 1537 1537 1537 1537 1539 1541 1543 1544 1546 1548 1549 1551 1552 1553
1521 1522 1523 1525 1529 1532 1536 1538 1536 1537 1543 1542 1534 1533 1537 1538 1538 1540 1540 1541 1545 1546 1541 1542 1547 1537 1523 1519 1516 1513 1514 1511 1508 1508 1504 1500 1500 1501 1499 1497 1497 1498 1498 1499 1499 1501 1502 1503 1505 1506 1507 1509 1509 1511 1514 1516 1517 1517 1519 1520 1521 1521 1522 1524 1526 1528 1530 1531 1531 1532 1532 1533 1533 1533 1533 1535 1537 1539 1541 1542 1544 1545 1546 1548 1548 1549
1512 1519 1523 1525 1529 1532 1534 1533 1529 1531 1539 1537 1528 1529 1535 1536 1538 1540 1540 1541 1542 1543 1543 1542 1545 1545 1531 1517 1513 1512 1512 1509 1506 1504 1500 1496 1496 1495 1494 1493 1493 1493 1494 1494 1495 1496 1497 1498 1499 1500 1502 1504 1505 1508 1511 1512 1512 1513 1515 1516 1517 1518 1518 1520 1522 1524 1526 1527 1528 1528 1529 1529 1529 1529 1531 1533 1535 1537 1538 1539 1540 1541 1542 1544 1545 1546
1506 1514 1517 1519 1525 1529 1526 1521 1522 1528 1534 1531 1527 1529 1533 1535 1539 1542 1541 1542 1543 1546 1545 1542 1546 1548 1531 1514 1512 1512 1510 1508 1503 1498 1495 1492 1491 1490 1489 1488 1489 1490 1490 1490 1490 1491 1492 1493 1494 1495 1497 1499 1501 1504 1506 1507 1509 1510 1511 1513 1513 1514 1515 1516 1518 1519 1521 1523 1524 1526 1526 1526 1526 1527 1529 1531 1532 1533 1534 1535 1536 1537 1538 1540 1541 1542
1506 1508 1508 1513 1520 1521 1517 1516 1520 1526 1528 1528 1528 1530 1533 1536 1540 1544 1544 1542 1545 1548 1544 1539 1544 1545 1524 1506 1509 1513 1510 1507 1500 1495 1491 1488 1486 1486 1485 1485 1485 1487 1487 1486 1487 1487 1488 1489 1490 1492 1493 1495 1497 1499 1501 1502 1505 1506 1507 1508 1509 1510 1511 1512 1514 1515 1517 1519 1520 1522 1522 1522 1523 1525 1526 1528 1528 1529 1530 1531 1532 1533 1534 1536 1537 1538
1504 1504 1508 1511 1513 1512 1512 1517 1521 1524 1527 1529 1531 1533 1537 1540 1540 1544 1546 1545 1547 1546 1537 1531 1536 1542 1526 1502 1500 1503 1500 1498 1496 1493 1487 1482 1482 1482 1481 1481 1482 1483 1483 1484 1484 1484 1484 1485 1486 1488 1488 1489 1491 1493 1496 1498 1500 1501 1502 1504 1504 1506 1507 1508 1510 1511 1512 1514 1516 1517 1518 1518 1519 1521 1523 1524 1524 1525 1526 1526 1527 1529 1531 1532 1533 1534
1505 1507 1509 1507 1507 1508 1512 1519 1522 1524 1528 1532 1534 1533 1539 1545 1543 1546 1549 1549 1550 1540 1526 1521 1527 1539 1529 1502 1493 1495 1491 1491 1491 1487 1482 1479 1479 1478 1478 1479 1479 1480 1481 1481 1481 1480 1480 1481 1481 1483 1483 1484 1486 1488 1490 1492 1494 1496 1498 1499 1500 1502 1504 1504 1506 1507 1508 1510 1511 1513 1514 1515 1516 1518 1519 1519 1520 1521 1522 1523 1524 1526 1527 1528 1529 1530
1508 1506 1503 1503 1505 1506 1511 1520 1526 1528 1529 1535 1537 1535 1541 1548 1547 1547 1547 1547 1545 1532 1521 1521 1526 1531 1516 1492 1489 1491 1488 1488 1486 1482 1479 1477 1476 1475 1476 1477 1477 1478 1478 1478 1478 1477 1477 1477 1477 1478 1479 1480 1482 1483 1485 1487 1489 1491 1493 1495 1496 1497 1499 1501 1502 1503 1505 1506 1507 1508 1510 1511 1513 1514 1515 1516 1517 1518 1519 1520 1521 1522 1523 1524 1525 1526
1509 1507 1504 1505 1505 1504 1507 1515 1523 1524 1525 1530 1532 1531 1535 1541 1544 1544 1543 1544 1540 1528 1522 1526 1527 1523 1506 1487 1485 1485 1483 1482 1480 1478 1476 1474 1474 1473 1474 1475 1475 1475 1475 1474 1475 1475 1474 1474 1474 1475 1476 1477 1478 1479 1481 1483 1484 1486 1488 1490 1491 1494 1496 1497 1499 1500 1501 1502 1503 1505 1506 1508 1510 1511 1511 1512 1513 1514 1515 1516 1517 1518 1520 1520 1521 1522
1503 1502 1500 1499 1497 1497 1499 1500 1501 1506 1513 1518 1518 1522 1525 1526 1530 1532 1533 1535 1532 1526 1526 1528 1526 1516 1501 1488 1482 1480 1479 1478 1476 1475 1473 1472 1471 1471 1471 1472 1471 1470 1470 1471 1472 1472 1472 1472 1472 1473 1473 1474 1475 1476 1477 1478 1480 1482 1483 1485 1487 1490 1492 1493 1495 1496 1497 1499 1500 1502 1503 1504 1506 1507 1508 1509 1510 1511 1512 1513 1514 1515 1516 1517 1517 1518
1496 1492 1487 1487 1487 1489 1493 1493 1495 1503 1514 1516 1516 1522 1522 1515 1516 1523 1526 1524 1523 1527 1527 1524 1516 1502 1489 1482 1479 1479 1478 1475 1474 1473 1470 1469 1467 1468 1468 1466 1466 1466 1465 1466 1467 1469 1470 1470 1470 1471 1471 1471 1472 1472 1473 1474 1476 1477 1479 1481 1483 1486 1488 1489 1491 1492 1494 1495 1497 1498 1499 1500 1502 1503 1504 1505 1506 1507 1508 1509 1510 1511 1512 1513 1514 1515
1495 1490 1484 1486 1488 1487 1487 1489 1494 1500 1507 1514 1517 1518 1513 1508 1510 1519 1526 1524 1524 1529 1522 1513 1508 1499 1489 1480 1472 1475 1476 1471 1470 1468 1466 1464 1462 1464 1464 1461 1462 1462 1461 1461 1462 1465 1466 1467 1468 1468 1468 1469 1469 1470 1470 1471 1472 1473 1476 1478 1480 1482 1484 1485 1487 1489 1490 1492 1493 1494 1495 1497 1498 1499 1500 1501 1502 1503 1505 1506 1506 1507 1508 1509 1509 1511
1488 1488 1484 1486 1489 1485 1484 1488 1494 1493 1496 1507 1512 1507 1507 1513 1514 1516 1525 1528 1531 1532 1518 1506 1504 1501 1499 1485 1469 1472 1475 1470 1467 1462 1459 1460 1459 1460 1460 1458 1459 1458 1458 1459 1459 1461 1463 1463 1465 1465 1466 1467 1467 1467 1467 1468 1469 1470 1472 1474 1476 1479 1480 1482 1483 1485 1487 1488 1489 1490 1491 1493 1494 1495 1496 1497 1499 1500 1501 1502 1502 1503 1504 1504 1506 1507
1483 1488 1486 1484 1484 1483 1487 1495 1500 1497 1495 1499 1500 1498 1505 1516 1517 1517 1522 1523 1526 1525 1512 1502 1499 1495 1492 1479 1467 1471 1472 1468 1464 1457 1455 1458 1456 1456 1455 1455 1456 1455 1456 1457 1457 1459 1460 1460 1462 1462 1463 1464 1464 1465 1465 1466 1466 1467 1469 1471 1473 1475 1477 1479 1480 1481 1483 1484 1485 1486 1488 1489 1490 1491 1493 1494 1495 1496 1496 1497 1498 1499 1500 1501 1502 1503
1482 1487 1485 1481 1481 1484 1489 1495 1499 1499 1499 1498 1498 1500 1504 1508 1509 1510 1510 1508 1512 1515 1507 1499 1495 1486 1473 1463 1462 1466 1466 1466 1464 1457 1455 1456 1453 1452 1452 1452 1453 1453 1454 1455 1455 1457 1457 1458 1459 1459 1460 1461 1461 1462 1462 1463 1463 1464 1466 1467 1469 1471 1473 1474 1475 1476 1478 1479 1481 1482 1484 1485 1486 1487 1489 1489 1490 1491 1491 1493 1494 1494 1495 1497 1498 1499
1483 1486 1484 1483 1484 1485 1487 1487 1484 1486 1492 1497 1497 1499 1501 1504 1506 1507 1504 1501 1503 1509 1507 1501 1492 1471 1455 1455 1458 1459 1460 1461 1460 1457 1454 1451 1448 1448 1447 1448 1450 1450 1450 1451 1452 1454 1454 1455 1456 1456 1457 1457 1458 1459 1459 1460 1461 1461 1463 1464 1466 1467 1468 1470 1471 1472 1473 1475 1476 1478 1479 1481 1482 1483 1484 1485 1486 1486 1487 1489 1489 1490 1491 1493 1494 1495
1481 1484 1483 1483 1483 1482 1479 1474 1469 1470 1477 1483 1485 1485 1487 1492 1499 1504 1504 1499 1498 1500 1498 1498 1486 1458 1445 1451 1452 1451 1454 1453 1452 1452 1449 1445 1443 1444 1444 1445 1448 1448 1447 1448 1450 1451 1451 1452 1453 1453 1454 1455 1455 1456 1456 1457 1458 1459 1460 1461 1463 1464 1464 1466 1467 1468 1469 1471 1472 1473 1475 1476 1478 1479 1480 1481 1482 1482 1483 1484 1485 1486 1488 1488 1489 1491
1474 1479 1480 1479 1477 1476 1473 1470 1470 1471 1472 1476 1478 1478 1479 1484 1489 1495 1497 1494 1494 1494 1489 1494 1487 1455 1439 1447 1445 1443 1447 1445 1445 1446 1444 1442 1442 1443 1444 1445 1446 1446 1445 1447 1447 1448 1449 1449 1450 1451 1452 1453 1453 1453 1454 1455 1456 1457 1458 1459 1460 1460 1461 1462 1463 1465 1466 1467 1468 1469 1470 1472 1473 1474 1475 1476 1477 1478 1479 1480 1481 1483 1483 1484 1485 1487
1474 1476 1479 1478 1475 1474 1473 1473 1474 1474 1475 1477 1479 1478 1478 1479 1479 1480 1481 1481 1485 1487 1485 1494 1490 1456 1436 1442 1442 1440 1442 1441 1441 1442 1441 1442 1441 1441 1443 1443 1444 1444 1444 1444 1445 1445 1447 1447 1448 1449 1450 1451 1451 1451 1452 1453 1453 1454 1455 1456 1457 1457 1459 1460 1460 1462 1462 1463 1464 1465 1466 1467 1468 1470 1471 1472 1473 1474 1475 1477 1478 1479 1479 1480 1481 1482
1468 1470 1474 1477 1476 1475 1476 1477 1477 1477 1477 1474 1471 1471 1471 1470 1473 1476 1478 1479 1480 1479 1478 1487 1483 1452 1432 1438 1441 1440 1441 1441 1441 1440 1440 1441 1440 1439 1441 1441 1441 1442 1442 1443 1443 1443 1445 1445 1446 1447 1448 1449 1449 1449 1450 1451 1451 1452 1452 1453 1454 1454 1456 1456 1457 1458 1459 1460 1461 1461 1462 1463 1465 1466 1467 1468 1469 1471 1472 1473 1474 1475 1476 1476 1477 1478
1461 1462 1464 1466 1467 1465 1463 1463 1463 1466 1470 1469 1465 1466 1466 1465 1469 1471 1473 1477 1475 1470 1469 1473 1466 1443 1431 1438 1441 1440 1441 1441 1439 1439 1440 1440 1439 1438 1438 1439 1439 1439 1440 1440 1441 1441 1442 1443 1444 1445 1446 1447 1447 1448 1448 1449 1449 1449 1450 1450 1451 1452 1453 1453 1454 1455 1455 1456 1457 1458 1459 1460 1461 1462 1464 1465 1467 1468 1469 1470 1471 1471 1472 1472 1473 1474
1458 1459 1458 1457 1454 1449 1447 1448 1449 1450 1458 1464 1463 1462 1461 1458 1458 1461 1466 1468 1464 1462 1462 1458 1452 1442 1434 1436 1439 1437 1438 1439 1437 1437 1438 1438 1437 1435 1434 1435 1436 1436 1437 1437 1438 1440 1440 1441 1442 1442 1443 1444 1445 1445 1446 1446 1447 1447 1448 1448 1449 1449 1450 1450 1451 1451 1452 1453 1453 1454 1455 1456 1458 1459 1461 1462 1463 1464 1465 1466 1467 1467 1468 1469 1470 1471
1454 1453 1452 1454 1450 1443 1443 1448 1449 1447 1450 1455 1455 1454 1454 1453 1455 1459 1460 1455 1453 1460 1459 1449 1448 1447 1433 1427 1433 1435 1435 1436 1435 1435 1435 1434 1433 1431 1431 1433 1433 1433 1434 1435 1436 1438 1438 1439 1439 1440 1441 1442 1442 1443 1444 1445 1445 1445 1446 1446 1446 1447 1447 1448 1448 1448 1449 1450 1450 1451 1452 1453 1455 1456 1457 1458 1459 1460 1461 1462 1463 1463 1464 1466 1466 1467
1450 1447 1444 1447 1446 1442 1444 1448 1449 1447 1447 1449 1450 1450 1451 1451 1453 1453 1450 1444 1445 1451 1447 1437 1441 1443 1426 1420 1429 1430 1429 1431 1431 1430 1430 1430 1429 1430 1431 1431 1431 1431 1433 1434 1435 1436 1436 1436 1437 1438 1439 1439 1440 1441 1442 1443 1443 1443 1444 1444 1444 1445 1445 1445 1446 1446 1447 1447 1448 1449 1450 1450 1451 1452 1453 1454 1455 1456 1457 1458 1459 1460 1461 1462 1463 1464
1448 1445 1441 1444 1444 1440 1441 1445 1448 1448 1447 1448 1449 1450 1451 1452 1453 1450 1446 1442 1440 1442 1439 1435 1438 1437 1424 1419 1423 1424 1425 1428 1428 1427 1428 1428 1429 1429 1429 1429 1429 1429 1430 1431 1432 1433 1433 1434 1434 1435 1437 1437 1438 1439 1440 1441 1441 1441 1442 1442 1442 1443 1443 1443 1444 1444 1445 1445 1446 1447 1447 1448 1448 1449 1451 1452 1453 1454 1455 1456 1457 1458 1458 1459 1460 1461
1442 1439 1437 1444 1447 1442 1439 1443 1447 1448 1447 1445 1445 1446 1447 1451 1454 1453 1450 1446 1445 1446 1441 1436 1438 1434 1420 1413 1418 1422 1425 1427 1427 1427 1428 1428 1428 1428 1427 1427 1426 1426 1427 1428 1429 1429 1430 1431 1432 1433 1434 1435 1436 1437 1438 1439 1439 1439 1440 1440 1441 1441 1441 1442 1442 1442 1443 1443 1444 1444 1445 1446 1447 1448 1449 1450 1450 1451 1452 1453 1454 1455 1456 1456 1457 1458
1439 1436 1435 1441 1444 1438 1435 1440 1443 1445 1448 1445 1442 1443 1445 1446 1448 1451 1448 1442 1441 1442 1440 1439 1439 1427 1412 1410 1418 1423 1424 1424 1425 1425 1426 1426 1426 1426 1424 1424 1423 1423 1425 1426 1426 1427 1427 1428 1430 1431 1432 1433 1434 1435 1436 1437 1437 1438 1438 1439 1440 1440 1440 1441 1441 1441 1442 1442 1443 1443 1444 1445 1445 1446 1447 1448 1449 1449 1450 1451 1452 1452 1453 1454 1454 1455
1435 1435 1433 1438 1439 1432 1429 1434 1439 1445 1445 1438 1433 1436 1438 1438 1440 1443 1442 1438 1435 1435 1437 1436 1428 1414 1409 1415 1419 1419 1419 1420 1419 1420 1422 1422 1422 1422 1421 1420 1421 1422 1422 1423 1423 1424 1425 1426 1428 1429 1429 1430 1431 1432 1434 1434 1435 1436 1437 1438 1438 1439 1439 1440 1440 1440 1441 1441 1442 1442 1443 1444 1444 1445 1445 1446 1447 1447 1448 1448 1449 1450 1450 1451 1451 1452
1431 1431 1430 1432 1432 1427 1427 1434 1441 1441 1430 1417 1416 1422 1424 1426 1430 1434 1435 1432 1429 1429 1428 1424 1417 1412 1416 1416 1411 1410 1413 1414 1413 1415 1418 1419 1419 1419 1418 1418 1419 1420 1419 1420 1420 1421 1422 1424 1426 1426 1427 1428 1428 1430 1432 1432 1433 1434 1435 1435 1436 1436 1437 1438 1438 1439 1439 1440 1440 1441 1441 1442 1442 1443 1444 1444 1444 1445 1445 1446 1446 1447 1447 1448 1448 1449
1428 1429 1430 1430 1427 1424 1429 1436 1436 1426 1413 1408 1411 1413 1414 1418 1422 1427 1429 1427 1426 1428 1428 1425 1419 1412 1409 1406 1403 1407 1412 1412 1412 1414 1415 1417 1417 1416 1415 1415 1417 1418 1417 1417 1416 1417 1419 1421 1422 1422 1423 1424 1426 1427 1428 1429 1430 1431 1432 1432 1433 1434 1434 1435 1436 1436 1437 1438 1438 1439 1439 1440 1440 1441 1441 1441 1442 1442 1442 1443 1443 1444 1445 1445 1446 1446
1425 1425 1427 1427 1425 1423 1427 1430 1421 1410 1407 1413 1413 1410 1413 1419 1421 1427 1431 1426 1423 1423 1422 1421 1414 1404 1403 1405 1405 1409 1411 1411 1412 1412 1410 1411 1412 1412 1413 1413 1413 1415 1415 1413 1412 1413 1415 1416 1417 1418 1420 1422 1423 1423 1424 1425 1427 1427 1428 1429 1429 1430 1431 1432 1433 1433 1434 1435 1435 1436 1436 1437 1437 1437 1438 1438 1439 1439 1440 1440 1441 1441 1442 1442 1443 1444
1425 1423 1422 1423 1420 1417 1420 1420 1412 1407 1408 1412 1411 1407 1408 1410 1412 1419 1422 1414 1408 1409 1413 1415 1412 1406 1404 1403 1402 1406 1409 1411 1411 1406 1402 1403 1405 1407 1408 1408 1409 1411 1411 1409 1409 1410 1411 1413 1414 1416 1417 1418 1418 1418 1419 1421 1423 1423 1424 1425 1426 1427 1428 1428 1429 1430 1430 1431 1432 1432 1433 1433 1433 1434 1434 1435 1435 1436 1436 1437 1438 1438 1439 1439 1440 1441
1425 1424 1423 1422 1418 1415 1416 1416 1413 1412 1407 1403 1402 1400 1399 1400 1400 1407 1413 1406 1397 1400 1408 1410 1406 1400 1396 1395 1400 1407 1412 1416 1410 1395 1389 1395 1401 1403 1405 1405 1405 1406 1406 1406 1407 1406 1407 1409 1410 1412 1413 1413 1414 1415 1416 1417 1418 1419 1420 1421 1422 1423 1424 1424 1425 1426 1426 1427 1428 1429 1429 1430 1430 1430 1431 1431 1432 1433 1433 1434 1434 1435 1435 1436 1437 1438
1426 1425 1426 1425 1420 1418 1419 1415 1411 1408 1401 1395 1396 1396 1397 1400 1399 1405 1417 1407 1389 1390 1401 1402 1399 1394 1390 1395 1403 1409 1416 1417 1402 1382 1381 1393 1399 1401 1402 1402 1400 1401 1401 1402 1402 1402 1402 1404 1406 1408 1408 1408 1409 1411 1413 1413 1414 1415 1416 1417 1418 1419 1420 1421 1422 1422 1423 1424 1425 1425 1426 1426 1426 1427 1428 1428 1429 1430 1430 1431 1431 1432 1433 1434 1435 1436
1426 1426 1427 1426 1422 1419 1419 1415 1409 1404 1398 1395 1396 1395 1396 1398 1398 1408 1418 1404 1383 1385 1395 1396 1394 1389 1388 1397 1405 1408 1410 1405 1387 1377 1384 1393 1394 1395 1396 1394 1393 1396 1397 1397 1397 1397 1398 1399 1401 1403 1403 1403 1405 1408 1409 1409 1410 1411 1412 1414 1414 1415 1415 1417 1418 1419 1420 1421 1421 1422 1422 1422 1423 1424 1424 1425 1426 1427 1428 1428 1429 1430 1430 1432 1433 1434
1423 1424 1424 1423 1421 1420 1419 1416 1410 1403 1396 1394 1395 1394 1394 1399 1403 1407 1405 1391 1381 1383 1387 1388 1388 1386 1388 1397 1401 1398 1394 1388 1380 1381 1387 1388 1388 1389 1389 1388 1388 1391 1392 1392 1392 1393 1394 1395 1395 1396 1398 1399 1401 1403 1404 1404 1405 1406 1408 1409 1410 1410 1412 1414 1415 1416 1417 1417 1417 1418 1418 1419 1420 1421 1421 1422 1423 1424 1425 1425 1426 1427 1428 1429 1430 1431
1418 1419 1420 1420 1419 1419 1417 1415 1412 1404 1393 1389 1392 1392 1393 1399 1405 1400 1389 1382 1383 1384 1382 1384 1385 1385 1388 1392 1391 1386 1383 1381 1380 1383 1383 1383 1384 1384 1383 1383 1384 1385 1386 1386 1386 1387 1389 1389 1390 1391 1393 1395 1397 1398 1399 1400 1400 1402 1404 1404 1405 1407 1409 1410 1411 1411 1412 1413 1413 1414 1415 1415 1416 1417 1418 1419 1420 1420 1421 1422 1423 1424 1425 1426 1426 1427
1408 1412 1414 1413 1412 1413 1415 1414 1412 1403 1391 1387 1391 1394 1394 1394 1394 1390 1385 1384 1384 1384 1383 1384 1383 1384 1386 1385 1381 1379 1377 1377 1379 1379 1378 1378 1379 1378 1377 1378 1379 1379 1380 1380 1380 1381 1383 1384 1384 1385 1387 1390 1392 1393 1394 1395 1396 1397 1399 1399 1401 1403 1405 1405 1406 1407 1408 1408 1409 1410 1411 1412 1413 1414 1415 1415 1416 1417 1418 1419 1420 1421 1422 1422 1423 1424
1400 1403 1405 1404 1403 1406 1410 1407 1401 1394 1389 1387 1388 1391 1390 1387 1385 1386 1387 1386 1385 1384 1385 1384 1382 1384 1385 1382 1378 1376 1375 1375 1375 1375 1374 1374 1373 1373 1373 1374 1374 1375 1375 1375 1376 1377 1378 1379 1379 1380 1383 1385 1386 1388 1390 1391 1392 1393 1394 1395 1397 1399 1400 1401 1402 1403 1403 1404 1405 1406 1407 1408 1409 1410 1411 1411 1412 1413 1414 1415 1417 1418 1419 1419 1419 1420
1394 1394 1396 1396 1395 1396 1397 1394 1388 1385 1386 1386 1386 1386 1386 1386 1385 1386 1386 1385 1384 1384 1383 1382 1381 1381 1381 1381 1379 1377 1375 1375 1374 1372 1371 1370 1369 1369 1369 1369 1370 1371 1371 1371 1372 1372 1372 1374 1374 1376 1377 1379 1381 1383 1385 1386 1387 1388 1389 1390 1392 1393 1395 1396 1397 1398 1398 1400 1400 1402 1403 1404 1405 1406 1407 1408 1409 1410 1411 1412 1413 1415 1415 1416 1417 1417
1392 1393 1393 1393 1394 1393 1390 1387 1385 1384 1383 1385 1386 1386 1386 1386 1385 1385 1384 1383 1383 1383 1381 1380 1378 1377 1377 1378 1377 1375 1374 1374 1373 1371 1370 1368 1366 1366 1366 1366 1366 1367 1367 1367 1367 1367 1368 1369 1369 1370 1371 1373 1375 1377 1379 1380 1381 1381 1383 1385 1386 1388 1390 1391 1392 1393 1394 1395 1396 1398 1399 1400 1401 1402 1403 1404 1405 1406 1408 1409 1410 1411 1413 1413 1414 1415
1393 1394 1394 1393 1395 1395 1390 1384 1382 1381 1381 1383 1385 1385 1385 1385 1385 1385 1384 1382 1382 1381 1380 1378 1376 1374 1373 1373 1373 1372 1371 1370 1370 1369 1368 1367 1365 1364 1362 1361 1361 1362 1362 1362 1361 1362 1362 1362 1363 1364 1365 1367 1369 1370 1372 1373 1374 1376 1378 1380 1381 1383 1385 1386 1387 1388 1390 1391 1392 1393 1394 1395 1397 1398 1399 1400 1402 1403 1405 1406 1407 1409 1410 1411 1412 1412
1394 1394 1393 1392 1393 1392 1387 1382 1380 1381 1380 1381 1383 1383 1383 1383 1384 1384 1383 1381 1380 1379 1378 1376 1374 1371 1370 1369 1369 1369 1367 1366 1366 1365 1364 1364 1363 1361 1359 1357 1356 1355 1355 1356 1356 1356 1355 1355 1356 1357 1359 1361 1362 1363 1365 1366 1368 1370 1373 1375 1377 1379 1380 1381 1383 1384 1386 1387 1388 1389 1390 1391 1393 1394 1395 1397 1398 1400 1401 1402 1403 1405 1407 1408 1409 1410
1396 1394 1392 1390 1390 1390 1385 1379 1379 1381 1380 1379 1380 1380 1380 1381 1382 1381 1381 1379 1378 1376 1375 1373 1371 1369 1367 1366 1366 1365 1364 1363 1362 1362 1361 1360 1358 1357 1355 1353 1351 1349 1348 1349 1350 1350 1349 1349 1350 1351 1353 1356 1357 1358 1359 1361 1363 1366 1368 1370 1372 1374 1375 1377 1379 1380 1381 1383 1383 1385 1386 1387 1389 1390 1392 1393 1395 1396 1398 1400 1401 1402 1404 1406 1407 1408
1394 1392 1390 1391 1392 1390 1382 1376 1377 1380 1378 1374 1375 1377 1378 1379 1379 1378 1377 1376 1374 1373 1372 1370 1368 1366 1364 1363 1362 1361 1360 1359 1358 1358 1357 1356 1354 1352 1350 1348 1346 1344 1342 1342 1343 1344 1344 1344 1345 1347 1349 1350 1352 1353 1355 1357 1359 1361 1364 1366 1368 1369 1370 1372 1374 1375 1377 1378 1379 1380 1381 1383 1385 1386 1387 1389 1391 1393 1395 1397 1398 1400 1401 1403 1404 1406
1389 1387 1387 1389 1388 1383 1375 1371 1375 1378 1374 1371 1373 1376 1376 1377 1377 1375 1373 1371 1369 1368 1367 1366 1364 1362 1360 1359 1359 1358 1356 1355 1356 1355 1353 1352 1351 1349 1346 1344 1342 1339 1337 1337 1337 1338 1339 1340 1341 1343 1344 1345 1347 1349 1351 1353 1356 1358 1360 1362 1363 1364 1366 1368 1369 1371 1372 1373 1375 1376 1378 1379 1381 1382 1383 1386 1388 1390 1392 1393 1395 1396 1398 1400 1402 1404